| time (UTC) | temp C | wind direction | speed KPH | gust KPH | rain 1hr cm | rain 24hr cm | rain mn cm | humidity % | barometer mb |
| 20260505053748 | 13 | 0.0 | 0.0 | 0.00 | 0.00 | 0.00 | 10 | -203.5 | |
| 20260505052748 | 12 | 0.0 | 0.0 | 0.00 | 0.00 | 0.00 | 10 | -203.3 | |
| 20260505051748 | 11 | 0.0 | 0.0 | 0.00 | 0.00 | 0.00 | 10 | -203.0 | |
| 20260505050748 | 11 | 0.0 | 0.0 | 0.00 | 0.00 | 0.00 | 10 | -202.8 | |
| 20260505041749 | 9 | 0.0 | 0.0 | 0.00 | 0.00 | 0.00 | 10 | -202.4 | |
| 20260504192747 | 16 | 0.0 | 0.0 | 0.00 | 0.00 | 0.00 | 10 | -204.4 | |
| 20260504183910 | 19 | 0.0 | 0.0 | 0.00 | 0.00 | 0.00 | 10 | -205.2 | |
| 20260504182910 | 20 | 0.0 | 0.0 | 0.00 | 0.00 | 0.00 | 10 | -205.4 | |
| 20260504181912 | 20 | 0.0 | 0.0 | 0.00 | 0.00 | 0.00 | 10 | -205.4 | |
| 20260504180910 | 21 | 0.0 | 0.0 | 0.00 | 0.00 | 0.00 | 10 | -205.9 | |
| 20260504175909 | 22 | 0.0 | 0.0 | 0.00 | 0.00 | 0.00 | 10 | -206.1 | |
| 20260504174909 | 22 | 0.0 | 0.0 | 0.00 | 0.00 | 0.00 | 10 | -206.2 | |
| 20260504173909 | 23 | 0.0 | 0.0 | 0.00 | 0.00 | 0.00 | 10 | -206.4 | |
| 20260504172909 | 24 | 0.0 | 0.0 | 0.00 | 0.00 | 0.00 | 90 | -206.6 | |
| 20260504171909 | 24 | 0.0 | 0.0 | 0.00 | 0.00 | 0.00 | 83 | -206.6 | |
| 20260504170909 | 25 | 0.0 | 0.0 | 0.00 | 0.00 | 0.00 | 79 | -206.7 | |
| 20260504150909 | 30 | 0.0 | 0.0 | 0.00 | 0.00 | 0.00 | 37 | -208.2 | |
| 20260504140909 | 31 | 0.0 | 0.0 | 0.00 | 0.00 | 0.00 | 33 | -208.7 | |
| 20260504081908 | 20 | 0.0 | 0.0 | 0.00 | 0.00 | 0.00 | 10 | -205.4 | |
| 20260504080908 | 19 | 0.0 | 0.0 | 0.00 | 0.00 | 0.00 | 10 | -205.1 |